| time (UTC) | temp C | wind direction | speed KPH | gust KPH | rain 1hr cm | rain 24hr cm | rain mn cm | humidity % | barometer mb |
| 20260504035359 | 15 | 222 | 3.2 | 3.2 | 0.00 | 0.00 | 0.00 | 55 | 1012.9 |
| 20260504034855 | 15 | 218 | 4.8 | 6.4 | 0.00 | 0.00 | 0.00 | 54 | 1013.1 |
| 20260504034353 | 15 | 230 | 6.4 | 6.4 | 0.00 | 0.00 | 0.00 | 54 | 1013.2 |
| 20260504033850 | 15 | 233 | 3.2 | 4.8 | 0.00 | 0.00 | 0.00 | 54 | 1013.2 |
| 20260504033348 | 15 | 199 | 3.2 | 4.8 | 0.00 | 0.00 | 0.00 | 54 | 1013.2 |
| 20260504032844 | 15 | 231 | 3.2 | 4.8 | 0.00 | 0.00 | 0.00 | 54 | 1013.3 |
| 20260504032342 | 15 | 225 | 3.2 | 3.2 | 0.00 | 0.00 | 0.00 | 55 | 1013.1 |
| 20260504031838 | 15 | 212 | 6.4 | 9.7 | 0.00 | 0.00 | 0.00 | 54 | 1013.4 |
| 20260504031336 | 14 | 211 | 6.4 | 6.4 | 0.00 | 0.00 | 0.00 | 55 | 1013.3 |
| 20260504030832 | 14 | 188 | 4.8 | 6.4 | 0.00 | 0.00 | 0.00 | 55 | 1013.3 |
| 20260504030329 | 14 | 184 | 6.4 | 9.7 | 0.00 | 0.00 | 0.00 | 55 | 1013.5 |
| 20260504025825 | 14 | 221 | 4.8 | 4.8 | 0.00 | 0.00 | 0.00 | 55 | 1013.4 |
| 20260504025323 | 14 | 228 | 6.4 | 9.7 | 0.00 | 0.00 | 0.00 | 55 | 1013.5 |
| 20260504024819 | 14 | 210 | 3.2 | 4.8 | 0.00 | 0.00 | 0.00 | 55 | 1013.4 |
| 20260504024316 | 15 | 215 | 3.2 | 3.2 | 0.00 | 0.00 | 0.00 | 55 | 1013.5 |
| 20260504023812 | 15 | 224 | 6.4 | 9.7 | 0.00 | 0.00 | 0.00 | 54 | 1013.6 |
| 20260504023309 | 15 | 189 | 3.2 | 4.8 | 0.00 | 0.00 | 0.00 | 55 | 1013.7 |
| 20260504022805 | 14 | 225 | 4.8 | 4.8 | 0.00 | 0.00 | 0.00 | 55 | 1013.7 |
| 20260504022304 | 14 | 209 | 3.2 | 3.2 | 0.00 | 0.00 | 0.00 | 55 | 1013.6 |
| 20260504021758 | 14 | 220 | 4.8 | 4.8 | 0.00 | 0.00 | 0.00 | 56 | 1013.6 |
| 20260504021256 | 14 | 203 | 3.2 | 4.8 | 0.00 | 0.00 | 0.00 | 56 | 1013.6 |
| 20260504020753 | 14 | 195 | 4.8 | 6.4 | 0.00 | 0.00 | 0.00 | 55 | 1013.5 |
| 20260504020249 | 14 | 199 | 6.4 | 6.4 | 0.00 | 0.00 | 0.00 | 55 | 1013.7 |
| 20260504015745 | 14 | 211 | 4.8 | 4.8 | 0.00 | 0.00 | 0.00 | 56 | 1013.6 |
| 20260504015242 | 14 | 203 | 4.8 | 6.4 | 0.00 | 0.00 | 0.00 | 56 | 1013.7 |
| 20260504014737 | 14 | 200 | 4.8 | 4.8 | 0.00 | 0.00 | 0.00 | 55 | 1013.6 |
| 20260504014234 | 14 | 204 | 1.6 | 3.2 | 0.00 | 0.00 | 0.00 | 56 | 1013.8 |
| 20260504013732 | 14 | 217 | 1.6 | 3.2 | 0.00 | 0.00 | 0.00 | 57 | 1013.6 |
| 20260504013230 | 14 | 219 | 1.6 | 1.6 | 0.00 | 0.00 | 0.00 | 58 | 1013.8 |
| 20260504012726 | 14 | 217 | 1.6 | 1.6 | 0.00 | 0.00 | 0.00 | 57 | 1014.0 |
| 20260504012224 | 14 | 218 | 0.0 | 0.0 | 0.00 | 0.00 | 0.00 | 56 | 1014.0 |
| 20260504011720 | 14 | 218 | 0.0 | 1.6 | 0.00 | 0.00 | 0.00 | 56 | 1013.9 |
| 20260504011217 | 15 | 219 | 0.0 | 1.6 | 0.00 | 0.00 | 0.00 | 55 | 1013.8 |
| 20260504010713 | 15 | 219 | 1.6 | 1.6 | 0.00 | 0.00 | 0.00 | 54 | 1013.8 |
| 20260504010209 | 15 | 211 | 1.6 | 1.6 | 0.00 | 0.00 | 0.00 | 54 | 1013.8 |
| 20260504005706 | 15 | 209 | 3.2 | 3.2 | 0.00 | 0.00 | 0.00 | 53 | 1013.9 |
| 20260504005203 | 15 | 228 | 1.6 | 1.6 | 0.00 | 0.00 | 0.00 | 52 | 1013.9 |
| 20260504004701 | 15 | 234 | 1.6 | 1.6 | 0.00 | 0.00 | 0.00 | 53 | 1013.9 |
| 20260504004157 | 15 | 235 | 0.0 | 0.0 | 0.00 | 0.00 | 0.00 | 53 | 1014.0 |
| 20260504003654 | 15 | 235 | 0.0 | 0.0 | 0.00 | 0.00 | 0.00 | 53 | 1014.1 |
| 20260504003151 | 15 | 236 | 0.0 | 0.0 | 0.00 | 0.00 | 0.00 | 52 | 1014.1 |
| 20260504002647 | 16 | 236 | 0.0 | 0.0 | 0.00 | 0.00 | 0.00 | 50 | 1014.2 |
| 20260504002145 | 16 | 236 | 0.0 | 0.0 | 0.00 | 0.00 | 0.00 | 49 | 1013.9 |
| 20260504001643 | 16 | 236 | 0.0 | 1.6 | 0.00 | 0.00 | 0.00 | 48 | 1013.8 |
| 20260504001138 | 16 | 229 | 3.2 | 4.8 | 0.00 | 0.00 | 0.00 | 48 | 1013.6 |
| 20260504000636 | 16 | 227 | 4.8 | 4.8 | 0.00 | 0.00 | 0.00 | 48 | 1013.9 |
| 20260504000133 | 16 | 232 | 3.2 | 4.8 | 0.00 | 0.00 | 0.00 | 47 | 1013.8 |
| 20260503235631 | 17 | 244 | 3.2 | 3.2 | 0.00 | 0.00 | 0.00 | 46 | 1013.7 |
| 20260503235128 | 17 | 243 | 3.2 | 3.2 | 0.00 | 0.00 | 0.00 | 46 | 1013.5 |
| 20260503234626 | 17 | 249 | 3.2 | 4.8 | 0.00 | 0.00 | 0.00 | 46 | 1013.4 |
| 20260503234124 | 17 | 221 | 6.4 | 9.7 | 0.00 | 0.00 | 0.00 | 46 | 1013.3 |
| 20260503233621 | 17 | 239 | 3.2 | 4.8 | 0.00 | 0.00 | 0.00 | 46 | 1013.4 |
| 20260503233116 | 17 | 232 | 4.8 | 4.8 | 0.00 | 0.00 | 0.00 | 46 | 1013.5 |
| 20260503232613 | 17 | 238 | 6.4 | 9.7 | 0.00 | 0.00 | 0.00 | 46 | 1013.5 |
| 20260503232110 | 17 | 214 | 9.7 | 11.3 | 0.00 | 0.00 | 0.00 | 45 | 1013.3 |
| 20260503231609 | 17 | 224 | 6.4 | 6.4 | 0.00 | 0.00 | 0.00 | 46 | 1013.3 |
| 20260503231105 | 17 | 234 | 6.4 | 6.4 | 0.00 | 0.00 | 0.00 | 45 | 1013.6 |
| 20260503230601 | 17 | 213 | 6.4 | 9.7 | 0.00 | 0.00 | 0.00 | 46 | 1013.6 |
| 20260503230059 | 17 | 218 | 4.8 | 4.8 | 0.00 | 0.00 | 0.00 | 45 | 1013.5 |
| 20260503225555 | 17 | 229 | 6.4 | 6.4 | 0.00 | 0.00 | 0.00 | 45 | 1013.5 |
| 20260503225050 | 17 | 223 | 4.8 | 6.4 | 0.00 | 0.00 | 0.00 | 45 | 1013.6 |
| 20260503224548 | 17 | 219 | 16.1 | 17.7 | 0.00 | 0.00 | 0.00 | 45 | 1013.6 |
| 20260503224046 | 17 | 243 | 4.8 | 6.4 | 0.00 | 0.00 | 0.00 | 45 | 1013.7 |
| 20260503223544 | 17 | 226 | 11.3 | 16.1 | 0.00 | 0.00 | 0.00 | 44 | 1013.7 |
| 20260503223039 | 17 | 252 | 6.4 | 9.7 | 0.00 | 0.00 | 0.00 | 44 | 1013.7 |
| 20260503222537 | 17 | 228 | 4.8 | 6.4 | 0.00 | 0.00 | 0.00 | 45 | 1013.8 |
| 20260503222035 | 17 | 254 | 6.4 | 11.3 | 0.00 | 0.00 | 0.00 | 44 | 1014.0 |
| 20260503221533 | 17 | 244 | 4.8 | 4.8 | 0.00 | 0.00 | 0.00 | 43 | 1014.0 |
| 20260503221030 | 17 | 237 | 6.4 | 6.4 | 0.00 | 0.00 | 0.00 | 43 | 1014.1 |
| 20260503220526 | 17 | 236 | 3.2 | 3.2 | 0.00 | 0.00 | 0.00 | 42 | 1014.2 |
| 20260503220023 | 18 | 226 | 8.0 | 12.9 | 0.00 | 0.00 | 0.00 | 42 | 1014.3 |
| 20260503215520 | 18 | 269 | 4.8 | 4.8 | 0.00 | 0.00 | 0.00 | 43 | 1014.5 |
| 20260503215017 | 17 | 241 | 3.2 | 3.2 | 0.00 | 0.00 | 0.00 | 45 | 1014.8 |
| 20260503214516 | 17 | 217 | 6.4 | 11.3 | 0.00 | 0.00 | 0.00 | 46 | 1014.9 |
| 20260503214012 | 17 | 244 | 6.4 | 6.4 | 0.00 | 0.00 | 0.00 | 44 | 1014.6 |
| 20260503213511 | 17 | 233 | 8.0 | 11.3 | 0.00 | 0.00 | 0.00 | 44 | 1015.0 |
| 20260503213007 | 17 | 223 | 6.4 | 9.7 | 0.00 | 0.00 | 0.00 | 44 | 1015.0 |
| 20260503212504 | 17 | 280 | 6.4 | 6.4 | 0.00 | 0.00 | 0.00 | 44 | 1015.1 |
| 20260503212002 | 17 | 232 | 3.2 | 3.2 | 0.00 | 0.00 | 0.00 | 46 | 1015.0 |
| 20260503211459 | 17 | 241 | 3.2 | 3.2 | 0.00 | 0.00 | 0.00 | 44 | 1015.3 |
| 20260503210954 | 17 | 259 | 6.4 | 6.4 | 0.00 | 0.00 | 0.00 | 42 | 1015.7 |
| 20260503210451 | 17 | 214 | 16.1 | 17.7 | 0.00 | 0.00 | 0.00 | 42 | 1015.9 |
| 20260503205951 | 17 | 233 | 3.2 | 4.8 | 0.00 | 0.00 | 0.00 | 43 | 1016.0 |
| 20260503205449 | 17 | 244 | 3.2 | 3.2 | 0.00 | 0.00 | 0.00 | 42 | 1016.1 |
| 20260503204945 | 17 | 252 | 3.2 | 4.8 | 0.00 | 0.00 | 0.00 | 43 | 1016.1 |
| 20260503204442 | 17 | 237 | 6.4 | 9.7 | 0.00 | 0.00 | 0.00 | 42 | 1016.1 |
| 20260503203934 | 17 | 252 | 3.2 | 3.2 | 0.00 | 0.00 | 0.00 | 41 | 1016.1 |
| 20260503203431 | 17 | 252 | 8.0 | 11.3 | 0.00 | 0.00 | 0.00 | 42 | 1016.0 |
| 20260503202927 | 17 | 254 | 4.8 | 4.8 | 0.00 | 0.00 | 0.00 | 39 | 1015.9 |
| 20260503202426 | 17 | 238 | 3.2 | 4.8 | 0.00 | 0.00 | 0.00 | 43 | 1015.9 |
| 20260503201924 | 17 | 248 | 4.8 | 4.8 | 0.00 | 0.00 | 0.00 | 41 | 1015.9 |
| 20260503201421 | 17 | 216 | 8.0 | 9.7 | 0.00 | 0.00 | 0.00 | 44 | 1016.1 |
| 20260503200919 | 17 | 248 | 4.8 | 4.8 | 0.00 | 0.00 | 0.00 | 40 | 1016.3 |
| 20260503200415 | 17 | 233 | 4.8 | 6.4 | 0.00 | 0.00 | 0.00 | 41 | 1016.4 |
| 20260503195911 | 17 | 251 | 3.2 | 3.2 | 0.00 | 0.00 | 0.00 | 45 | 1016.5 |
| 20260503195409 | 17 | 239 | 6.4 | 11.3 | 0.00 | 0.00 | 0.00 | 42 | 1016.7 |
| 20260503194905 | 17 | 246 | 3.2 | 3.2 | 0.00 | 0.00 | 0.00 | 43 | 1016.8 |
| 20260503194402 | 17 | 225 | 12.9 | 16.1 | 0.00 | 0.00 | 0.00 | 40 | 1016.8 |
| 20260503193858 | 17 | 251 | 8.0 | 11.3 | 0.00 | 0.00 | 0.00 | 40 | 1016.8 |
| 20260503193353 | 17 | 248 | 3.2 | 4.8 | 0.00 | 0.00 | 0.00 | 42 | 1017.0 |
| 20260503192849 | 16 | 230 | 6.4 | 9.7 | 0.00 | 0.00 | 0.00 | 42 | 1017.4 |
| 20260503192345 | 16 | 219 | 8.0 | 11.3 | 0.00 | 0.00 | 0.00 | 42 | 1017.3 |
| 20260503191842 | 16 | 242 | 9.7 | 11.3 | 0.00 | 0.00 | 0.00 | 41 | 1017.5 |
| 20260503191338 | 17 | 232 | 9.7 | 12.9 | 0.00 | 0.00 | 0.00 | 39 | 1017.5 |
| 20260503190835 | 17 | 223 | 4.8 | 6.4 | 0.00 | 0.00 | 0.00 | 38 | 1017.6 |
| 20260503190333 | 17 | 236 | 6.4 | 9.7 | 0.00 | 0.00 | 0.00 | 42 | 1017.5 |
| 20260503185830 | 17 | 257 | 1.6 | 3.2 | 0.00 | 0.00 | 0.00 | 39 | 1017.8 |
| 20260503185325 | 17 | 228 | 6.4 | 9.7 | 0.00 | 0.00 | 0.00 | 40 | 1018.1 |
| 20260503184820 | 17 | 232 | 4.8 | 4.8 | 0.00 | 0.00 | 0.00 | 41 | 1018.2 |
| 20260503184316 | 17 | 260 | 8.0 | 9.7 | 0.00 | 0.00 | 0.00 | 42 | 1018.0 |
| 20260503183812 | 17 | 248 | 4.8 | 4.8 | 0.00 | 0.00 | 0.00 | 39 | 1018.2 |
| 20260503183309 | 17 | 244 | 3.2 | 4.8 | 0.00 | 0.00 | 0.00 | 40 | 1018.3 |
| 20260503182807 | 17 | 243 | 1.6 | 1.6 | 0.00 | 0.00 | 0.00 | 42 | 1018.4 |
| 20260503182306 | 17 | 254 | 4.8 | 6.4 | 0.00 | 0.00 | 0.00 | 42 | 1018.6 |
| 20260503181802 | 16 | 235 | 4.8 | 4.8 | 0.00 | 0.00 | 0.00 | 41 | 1018.4 |
| 20260503181259 | 16 | 236 | 6.4 | 6.4 | 0.00 | 0.00 | 0.00 | 41 | 1018.6 |
| 20260503180756 | 16 | 234 | 4.8 | 6.4 | 0.00 | 0.00 | 0.00 | 40 | 1018.8 |
| 20260503180254 | 16 | 249 | 3.2 | 3.2 | 0.00 | 0.00 | 0.00 | 40 | 1018.8 |
| 20260503175750 | 16 | 228 | 6.4 | 11.3 | 0.00 | 0.00 | 0.00 | 40 | 1019.1 |
| 20260503175248 | 16 | 220 | 9.7 | 12.9 | 0.00 | 0.00 | 0.00 | 40 | 1019.0 |
| 20260503174744 | 16 | 231 | 4.8 | 4.8 | 0.00 | 0.00 | 0.00 | 40 | 1019.2 |
| 20260503174242 | 16 | 231 | 6.4 | 9.7 | 0.00 | 0.00 | 0.00 | 41 | 1019.3 |
| 20260503173742 | 16 | 227 | 6.4 | 9.7 | 0.00 | 0.00 | 0.00 | 40 | 1019.4 |
| 20260503173238 | 16 | 239 | 3.2 | 4.8 | 0.00 | 0.00 | 0.00 | 39 | 1019.6 |
| 20260503172735 | 16 | 221 | 3.2 | 4.8 | 0.00 | 0.00 | 0.00 | 43 | 1019.7 |
| 20260503172232 | 16 | 247 | 1.6 | 3.2 | 0.00 | 0.00 | 0.00 | 40 | 1019.4 |
| 20260503171729 | 16 | 239 | 6.4 | 6.4 | 0.00 | 0.00 | 0.00 | 43 | 1019.5 |
| 20260503171226 | 16 | 244 | 4.8 | 4.8 | 0.00 | 0.00 | 0.00 | 43 | 1019.4 |
| 20260503170723 | 16 | 243 | 3.2 | 3.2 | 0.00 | 0.00 | 0.00 | 39 | 1019.5 |
| 20260503170220 | 16 | 229 | 6.4 | 6.4 | 0.00 | 0.00 | 0.00 | 40 | 1019.7 |
| 20260503160142 | 15 | 218 | 3.2 | 4.8 | 0.00 | 0.00 | 0.00 | 41 | 1020.4 |
| 20260503150612 | 13 | 224 | 6.4 | 9.7 | 0.00 | 0.00 | 0.00 | 41 | 1021.1 |
| 20260503150108 | 13 | 219 | 3.2 | 4.8 | 0.00 | 0.00 | 0.00 | 43 | 1021.0 |
| 20260503130955 | 8 | 236 | 4.8 | 4.8 | 0.00 | 0.00 | 0.00 | 62 | 1021.3 |
| 20260503130453 | 8 | 228 | 1.6 | 3.2 | 0.00 | 0.00 | 0.00 | 62 | 1021.4 |
| 20260503110337 | 0 | 295 | 0.0 | 0.0 | 0.00 | 0.00 | 0.00 | 97 | 1020.7 |
| 20260503090223 | 0 | 295 | 0.0 | 0.0 | 0.00 | 0.00 | 0.00 | 96 | 1020.5 |
| 20260503081151 | 0 | 295 | 0.0 | 0.0 | 0.00 | 0.00 | 0.00 | 95 | 1020.3 |
| 20260503080646 | 0 | 295 | 0.0 | 0.0 | 0.00 | 0.00 | 0.00 | 95 | 1020.4 |
| 20260503080144 | 0 | 295 | 0.0 | 0.0 | 0.00 | 0.00 | 0.00 | 95 | 1020.3 |
| 20260503072621 | 0 | 295 | 0.0 | 0.0 | 0.00 | 0.00 | 0.00 | 95 | 1020.2 |
| 20260503072118 | 0 | 295 | 0.0 | 0.0 | 0.00 | 0.00 | 0.00 | 95 | 1020.1 |
| 20260503071614 | 1 | 295 | 0.0 | 0.0 | 0.00 | 0.00 | 0.00 | 95 | 1020.2 |
| 20260503071111 | 1 | 295 | 0.0 | 0.0 | 0.00 | 0.00 | 0.00 | 95 | 1020.3 |
| 20260503070608 | 1 | 295 | 0.0 | 0.0 | 0.00 | 0.00 | 0.00 | 95 | 1020.5 |
| 20260503070106 | 1 | 295 | 0.0 | 0.0 | 0.00 | 0.00 | 0.00 | 95 | 1020.3 |
| 20260503055031 | 1 | 295 | 0.0 | 0.0 | 0.00 | 0.00 | 0.00 | 94 | 1020.6 |
| 20260503054528 | 1 | 295 | 0.0 | 0.0 | 0.00 | 0.00 | 0.00 | 93 | 1020.5 |
| 20260503054025 | 1 | 295 | 0.0 | 0.0 | 0.00 | 0.00 | 0.00 | 93 | 1020.5 |
| 20260503053523 | 1 | 295 | 0.0 | 0.0 | 0.00 | 0.00 | 0.00 | 93 | 1020.6 |
| 20260503053020 | 1 | 295 | 0.0 | 0.0 | 0.00 | 0.00 | 0.00 | 93 | 1020.6 |
| 20260503052517 | 1 | 295 | 0.0 | 0.0 | 0.00 | 0.00 | 0.00 | 93 | 1020.7 |
| 20260503052013 | 1 | 295 | 0.0 | 0.0 | 0.00 | 0.00 | 0.00 | 93 | 1020.8 |
| 20260503051509 | 2 | 295 | 0.0 | 0.0 | 0.00 | 0.00 | 0.00 | 93 | 1020.7 |
| 20260503051007 | 2 | 295 | 0.0 | 0.0 | 0.00 | 0.00 | 0.00 | 92 | 1020.7 |
| 20260503050502 | 2 | 295 | 0.0 | 0.0 | 0.00 | 0.00 | 0.00 | 92 | 1020.7 |
| 20260503050000 | 2 | 295 | 0.0 | 0.0 | 0.00 | 0.00 | 0.00 | 92 | 1020.7 |
| 20260503045457 | 2 | 295 | 0.0 | 0.0 | 0.00 | 0.00 | 0.00 | 92 | 1020.7 |
| 20260503044954 | 2 | 295 | 0.0 | 0.0 | 0.00 | 0.00 | 0.00 | 92 | 1020.7 |
| 20260503044450 | 2 | 295 | 0.0 | 0.0 | 0.00 | 0.00 | 0.00 | 91 | 1020.7 |
| 20260503043948 | 2 | 295 | 0.0 | 0.0 | 0.00 | 0.00 | 0.00 | 91 | 1020.7 |
| 20260503043444 | 2 | 295 | 0.0 | 0.0 | 0.00 | 0.00 | 0.00 | 91 | 1020.5 |
| 20260503042941 | 2 | 295 | 0.0 | 0.0 | 0.00 | 0.00 | 0.00 | 90 | 1020.6 |
| 20260503042437 | 2 | 295 | 0.0 | 0.0 | 0.00 | 0.00 | 0.00 | 90 | 1020.4 |
| 20260503041934 | 2 | 295 | 0.0 | 0.0 | 0.00 | 0.00 | 0.00 | 90 | 1020.5 |
| 20260503041431 | 2 | 295 | 0.0 | 0.0 | 0.00 | 0.00 | 0.00 | 90 | 1020.5 |
| 20260503040928 | 2 | 295 | 0.0 | 0.0 | 0.00 | 0.00 | 0.00 | 89 | 1020.4 |
| 20260503040426 | 2 | 295 | 0.0 | 0.0 | 0.00 | 0.00 | 0.00 | 89 | 1020.3 |
| 20260503035923 | 2 | 295 | 0.0 | 0.0 | 0.00 | 0.00 | 0.00 | 88 | 1020.5 |